TimeCST,TemperatureF,Dew PointF,Humidity,Sea Level PressureIn,VisibilityMPH,Wind Direction,Wind SpeedMPH,Gust SpeedMPH,PrecipitationIn,Events,Conditions,WindDirDegrees,DateUTC
12:00 AM,26.6,15.8,64,30.18,10.0,NNE,9.2,-,N/A,,Overcast,30,2013-03-01 06:00:00
12:02 AM,26.6,15.8,64,30.18,10.0,NE,6.9,-,N/A,,Overcast,40,2013-03-01 06:02:00
12:55 AM,24.8,15.1,67,30.20,10.0,NE,11.5,-,N/A,,Overcast,40,2013-03-01 06:55:00
1:55 AM,23.9,14.5,67,30.21,10.0,NE,8.1,-,N/A,,Overcast,40,2013-03-01 07:55:00
2:54 AM,23.0,14.0,68,30.21,10.0,NE,8.1,-,N/A,,Overcast,40,2013-03-01 08:54:00
2:55 AM,23.4,14.0,67,30.21,10.0,NE,8.1,-,0.00,,Overcast,40,2013-03-01 08:55:00
3:13 AM,23.0,14.0,68,30.21,10.0,NNE,4.6,-,N/A,,Overcast,20,2013-03-01 09:13:00
3:22 AM,23.0,14.0,68,30.21,10.0,North,3.5,-,N/A,,Overcast,360,2013-03-01 09:22:00
3:31 AM,23.0,14.0,68,30.21,10.0,North,5.8,-,N/A,,Overcast,360,2013-03-01 09:31:00
3:45 AM,23.0,14.0,68,30.21,10.0,North,6.9,-,N/A,,Overcast,360,2013-03-01 09:45:00
3:55 AM,22.6,14.7,72,30.21,10.0,NNW,6.9,-,0.00,,Overcast,340,2013-03-01 09:55:00
4:04 AM,23.0,15.8,74,30.21,10.0,NNW,8.1,-,N/A,,Overcast,340,2013-03-01 10:04:00
4:13 AM,23.0,15.8,74,30.22,10.0,NNW,8.1,-,N/A,,Overcast,330,2013-03-01 10:13:00
4:55 AM,22.1,16.2,78,30.22,10.0,North,6.9,-,0.00,Snow,Light Snow,350,2013-03-01 10:55:00
5:45 AM,21.2,15.8,80,30.23,10.0,NW,6.9,-,N/A,,Overcast,320,2013-03-01 11:45:00
5:55 AM,21.6,16.3,80,30.23,10.0,NNW,6.9,-,0.00,,Overcast,330,2013-03-01 11:55:00
6:07 AM,21.2,15.8,80,30.24,10.0,NW,6.9,-,N/A,,Overcast,320,2013-03-01 12:07:00
6:18 AM,21.2,15.8,80,30.24,10.0,NNW,8.1,-,N/A,,Overcast,330,2013-03-01 12:18:00
6:42 AM,21.2,15.8,80,30.25,10.0,NNW,6.9,-,N/A,Snow,Light Snow,330,2013-03-01 12:42:00
6:46 AM,21.2,15.8,80,30.25,10.0,NNW,6.9,-,N/A,,Overcast,330,2013-03-01 12:46:00
6:50 AM,21.2,15.8,80,30.25,10.0,NNW,6.9,-,N/A,Snow,Light Snow,330,2013-03-01 12:50:00
6:52 AM,21.2,15.8,80,30.25,10.0,NNW,6.9,-,N/A,,Overcast,330,2013-03-01 12:52:00
6:55 AM,21.6,16.7,82,30.25,10.0,NNW,6.9,-,0.00,Snow,Light Snow,330,2013-03-01 12:55:00
7:55 AM,23.0,17.6,80,30.27,10.0,NNW,10.4,-,N/A,Snow,Light Snow,340,2013-03-01 13:55:00
8:55 AM,23.0,17.6,80,30.27,6.0,North,9.2,-,N/A,Snow,Light Snow,10,2013-03-01 14:55:00
9:55 AM,24.8,17.6,74,30.28,6.0,North,9.2,-,N/A,Snow,Light Snow,360,2013-03-01 15:55:00
10:13 AM,24.8,15.8,69,30.29,10.0,North,9.2,-,N/A,,Overcast,10,2013-03-01 16:13:00
10:20 AM,24.8,15.8,69,30.29,10.0,North,9.2,-,N/A,Snow,Light Snow,360,2013-03-01 16:20:00
10:30 AM,24.8,15.8,69,30.29,10.0,NNE,9.2,-,N/A,,Overcast,20,2013-03-01 16:30:00
10:55 AM,24.8,15.8,69,30.29,10.0,North,10.4,-,N/A,Snow,Light Snow,350,2013-03-01 16:55:00
11:55 AM,26.6,14.0,59,30.29,10.0,North,11.5,-,N/A,,Overcast,350,2013-03-01 17:55:00
12:55 PM,28.4,14.0,55,30.27,10.0,NNE,6.9,-,N/A,,Mostly Cloudy,20,2013-03-01 18:55:00
1:55 PM,28.4,14.0,55,30.25,10.0,NNW,8.1,-,N/A,,Mostly Cloudy,340,2013-03-01 19:55:00
2:55 PM,28.4,14.0,55,30.25,10.0,NNE,8.1,-,N/A,,Mostly Cloudy,20,2013-03-01 20:55:00
3:55 PM,30.2,14.0,51,30.25,10.0,NW,11.5,-,N/A,,Mostly Cloudy,320,2013-03-01 21:55:00
4:55 PM,28.0,13.1,54,30.27,10.0,North,8.1,-,N/A,,Clear,10,2013-03-01 22:55:00
5:55 PM,23.0,12.2,63,30.28,10.0,NNW,8.1,-,N/A,,Mostly Cloudy,330,2013-03-01 23:55:00
6:55 PM,16.5,10.0,76,30.29,10.0,NW,6.9,-,N/A,,Clear,310,2013-03-02 00:55:00
7:55 PM,13.8,9.1,82,30.30,10.0,WNW,4.6,-,N/A,,Clear,290,2013-03-02 01:55:00
8:55 PM,14.7,8.6,77,30.30,10.0,WNW,6.9,-,N/A,,Clear,300,2013-03-02 02:55:00
9:55 PM,14.9,8.1,74,30.30,10.0,West,3.5,-,N/A,,Clear,280,2013-03-02 03:55:00
10:55 PM,15.3,7.7,72,30.30,10.0,Calm,Calm,-,N/A,,Clear,0,2013-03-02 04:55:00
11:55 PM,12.6,6.1,75,30.30,10.0,West,4.6,-,N/A,,Clear,280,2013-03-02 05:55:00